RH
61 60 61 59 59 60 61 62 61 61 60 60 59 55 51 44 39 32 29 32 35 35 33 30 28 25 24 25 31 45 61 69 74 77 76 74 72 69 68 69 72 74 76 75 75 77 79 77 75 72 69 70
59 59 60 59 60 61 63 64 63 62 60 60 59 57 54 49 44 40 37 35 34 32 29 27 26 26 27 29 33 44 61 69 72 73 73 73 71 71 70 69 69 70 72 74 76 77 75 72 71 70 69 71
57 58 58 60 62 63 64 64 63 62 61 61 60 59 56 53 48 45 44 44 44 43 41 38 36 35 33 33 34 41 55 65 69 70 69 68 67 68 68 68 67 66 66 68 72 70 63 59 59 61 63 63
56 57 59 62 63 64 64 63 62 62 62 62 61 60 57 55 52 49 47 46 46 46 45 44 41 39 37 36 35 38 47 55 61 63 62 63 62 63 63 64 63 61 57 56 54 48 43 41 43 46 47 45
56 58 62 64 65 64 64 63 63 62 62 62 62 60 58 56 54 51 50 49 49 49 49 49 47 44 43 42 42 44 50 55 60 61 61 61 60 60 59 57 56 51 44 40 37 35 35 34 34 35 34 34
58 61 64 65 66 65 65 65 63 63 62 63 63 61 59 57 55 53 51 50 50 51 52 52 54 53 53 53 52 54 55 57 60 61 60 60 60 58 55 51 47 43 39 37 36 36 37 35 34 33 33 35
61 64 66 67 66 66 65 66 65 64 64 64 64 64 62 60 57 54 52 52 53 54 54 55 59 60 60 60 60 61 60 59 60 60 59 59 59 57 55 54 51 48 45 42 40 38 37 37 36 35 36 37
65 67 68 68 68 68 67 66 66 65 65 66 66 65 63 60 58 56 57 58 59 59 60 62 65 66 67 67 68 69 68 67 66 64 64 63 62 62 61 60 59 58 55 51 47 43 41 39 37 38 39 41
69 71 71 71 71 70 70 68 68 68 68 69 68 66 63 60 59 59 62 63 64 65 67 69 70 70 71 70 71 72 72 72 72 71 70 69 68 68 68 68 67 66 64 61 56 49 44 41 40 42 44 45
74 74 74 74 73 72 72 71 71 71 71 70 68 67 65 64 64 65 67 68 69 71 71 71 70 70 71 74 75 76 78 77 76 76 76 76 76 75 75 74 73 71 70 68 64 58 52 48 47 47 48 49
77 77 75 75 74 72 72 71 71 71 71 70 69 69 70 70 70 70 71 71 71 71 69 70 71 75 78 81 81 80 82 83 81 81 82 82 82 81 80 78 77 76 75 73 71 68 64 62 60 59 58 57
78 76 75 73 72 71 70 70 70 70 71 70 69 71 71 71 70 69 69 67 66 66 67 72 78 81 81 80 78 78 81 81 81 84 86 86 85 84 83 82 81 80 80 79 77 76 75 74 71 70 68 66
75 73 72 71 71 71 71 71 72 71 70 70 71 70 69 68 66 64 62 60 59 60 63 69 73 73 70 69 69 71 74 77 82 85 84 85 85 84 83 84 85 85 84 82 80 80 79 78 77 76 75 75
71 71 71 71 72 72 72 73 73 72 72 71 70 68 66 64 61 59 56 55 55 56 58 60 61 60 59 59 63 72 78 81 83 80 77 78 78 78 79 81 80 78 78 80 81 82 83 82 81 79 77 76
76 75 74 73 73 73 73 73 72 72 72 71 68 65 62 59 57 55 54 54 55 55 55 55 55 56 58 60 68 80 83 77 72 68 69 70 71 74 75 71 70 72 77 79 79 77 75 74 76 76 77 78
78 76 76 75 74 74 73 72 71 71 69 66 63 59 57 55 54 53 53 53 52 53 51 51 53 53 59 65 74 82 75 65 61 59 61 64 70 73 73 73 75 80 80 76 71 65 63 70 77 76 74 73
76 75 74 74 73 72 71 70 67 65 64 62 59 56 55 53 52 51 51 50 49 50 48 49 50 52 63 73 78 74 61 56 55 51 57 71 80 75 72 81 85 84 81 77 73 68 71 78 77 67 63 63
73 71 70 70 70 69 67 65 63 63 62 59 56 53 52 50 49 47 46 47 48 47 46 48 49 58 78 83 73 63 61 71 70 58 62 82 92 82 79 88 91 88 84 80 75 75 77 76 69 62 65 69
68 67 68 66 66 66 65 63 62 63 60 56 52 49 49 48 48 47 45 44 43 42 46 55 60 65 80 83 71 69 82 96 92 68 58 79 96 88 84 89 91 86 85 85 82 81 77 69 68 67 70 72
66 65 64 63 64 63 63 62 63 62 57 52 48 45 45 45 47 46 42 37 37 47 60 74 84 82 83 89 88 91 97 101 98 72 47 68 96 93 82 83 85 83 88 91 81 75 69 66 67 66 73 66
63 65 63 61 60 59 60 62 63 59 51 48 44 41 41 41 47 47 41 40 49 69 84 91 97 97 95 98 100 99 99 100 99 77 46 59 92 94 84 82 85 89 95 85 67 68 69 68 66 65 76 58
61 62 61 57 54 55 59 63 66 57 46 44 39 38 40 40 54 65 62 66 78 89 96 98 99 100 99 99 100 98 98 99 100 84 48 49 77 88 90 92 89 91 97 76 58 72 75 65 61 69 75 46
60 58 57 56 54 52 55 63 70 62 46 40 37 37 41 44 62 83 87 87 94 96 97 101 100 97 96 98 91 80 87 93 100 95 53 38 62 74 81 88 88 92 95 72 56 76 78 60 59 74 70 33
58 57 56 55 53 52 58 66 74 72 56 52 58 50 45 59 79 94 99 96 98 100 99 96 89 83 86 90 74 61 79 91 99 100 61 40 58 74 78 75 84 98 88 61 54 76 76 56 60 74 62 30
58 59 60 60 62 65 69 74 81 89 81 80 87 74 64 82 98 100 100 100 97 92 88 78 62 59 69 74 64 60 75 88 101 92 53 38 50 72 86 77 86 95 72 53 59 76 73 59 63 67 57 39
58 60 60 63 75 80 80 82 90 100 99 94 96 95 89 90 98 101 99 102 94 75 77 82 61 46 58 61 54 50 45 61 96 80 39 43 62 81 90 83 89 82 58 61 72 74 72 69 67 58 51 48
61 66 62 61 73 79 82 91 97 100 101 98 97 101 96 80 85 98 98 102 99 80 81 100 81 45 44 49 42 39 31 53 93 76 43 56 82 97 96 90 94 74 56 74 84 78 78 78 76 63 53 58
60 63 62 63 69 68 76 90 98 98 99 100 98 100 98 86 85 94 98 100 101 97 88 95 92 55 37 43 42 43 50 75 97 78 60 69 86 101 100 99 97 74 64 82 91 92 90 80 76 78 71 70
46 46 51 61 69 72 81 93 98 99 98 99 99 100 100 98 92 90 99 102 99 103 93 88 92 70 51 55 54 56 68 88 93 75 65 69 82 97 100 102 97 75 69 85 96 98 98 91 87 92 87 81
44 54 67 73 81 88 93 97 99 100 99 99 100 100 100 101 94 77 78 92 97 102 99 93 89 73 63 69 72 72 75 81 81 72 66 63 71 89 99 103 97 86 78 81 93 96 98 104 102 102 98 93
49 66 83 86 92 97 96 98 100 100 100 100 100 101 100 99 98 78 55 62 82 95 101 100 94 78 65 68 74 74 72 75 76 72 70 65 64 77 95 103 100 99 96 86 91 97 97 100 100 102 102 99
Wind_Speed
6 6 7 8 9 11 12 12 13 13 14 15 16 17 17 17 17 16 16 17 17 18 19 19 20 21 22 22 23 23 23 24 24 24 25 26 26 27 27 27 27 28 28 28 28 28 28 29 29 30 30 31
7 7 8 9 11 12 12 12 13 13 14 15 16 17 18 19 18 18 17 17 18 18 19 19 20 20 21 22 23 23 24 24 24 25 25 26 26 27 27 27 27 28 28 29 29 28 29 30 31 31 31 32
8 9 10 11 13 13 13 12 13 14 15 16 17 19 19 20 19 19 19 19 20 20 21 21 21 22 23 24 25 25 25 25 25 25 26 26 27 27 27 27 27 28 29 29 29 30 31 31 32 33 33 34
10 11 12 13 14 13 13 13 13 14 16 17 18 19 20 20 20 20 21 21 22 23 24 24 24 24 25 26 27 27 27 27 26 26 27 27 28 28 28 28 29 30 30 31 31 32 32 32 33 34 35 35
11 12 13 14 14 14 14 14 14 15 16 18 19 20 20 21 21 21 22 22 23 24 25 25 25 26 26 26 27 28 28 28 28 28 28 29 29 30 30 31 32 33 34 34 35 34 34 34 34 34 35 35
12 13 14 14 14 14 15 15 15 15 17 18 20 20 20 21 21 21 22 22 23 24 25 25 25 25 25 25 25 26 26 27 27 27 28 29 29 30 31 33 34 35 36 36 36 36 35 35 35 35 35 35
12 13 14 14 14 14 15 15 15 15 17 19 20 21 21 21 21 21 22 22 22 23 23 22 22 22 23 23 24 25 26 27 27 28 28 29 29 30 31 32 33 34 35 37 37 37 37 37 36 36 36 36
12 13 13 14 14 15 15 14 15 16 18 19 20 20 20 20 20 20 20 19 19 19 19 20 20 21 23 24 25 26 26 27 28 29 29 30 30 31 31 32 32 33 34 35 36 37 37 37 37 37 36 36
12 12 13 14 14 14 15 14 15 16 17 17 16 16 16 15 15 15 14 15 16 17 19 21 22 24 26 27 27 27 27 28 28 29 30 31 32 32 33 33 33 33 34 34 35 36 36 36 35 35 34 34
11 11 11 12 13 13 15 15 16 16 16 16 15 14 14 13 13 13 14 15 17 19 21 23 24 26 26 26 27 28 28 29 29 30 31 32 32 32 32 32 32 32 32 33 33 34 34 34 33 33 33 33
12 13 13 15 15 16 17 16 16 17 17 17 16 16 17 17 17 17 18 18 20 22 23 24 25 26 26 27 28 29 30 30 30 31 31 31 31 31 31 32 32 31 31 31 31 31 31 31 31 31 32 32
15 15 17 17 18 19 18 17 18 19 18 18 17 18 19 19 19 20 21 21 23 24 24 25 25 26 26 28 30 30 30 31 31 31 30 31 32 32 32 32 32 32 32 31 31 31 31 31 31 31 31 31
17 17 18 18 19 20 19 19 21 18 17 19 19 20 21 21 21 22 23 24 25 25 25 26 26 27 29 30 31 31 31 32 31 30 30 30 31 32 32 32 31 31 31 31 31 31 31 31 30 31 31 31
22 21 20 21 21 21 20 21 20 18 20 21 22 23 23 23 24 24 25 25 26 26 26 27 27 29 30 30 31 32 31 30 30 31 31 32 32 33 32 31 31 32 31 30 29 29 30 30 30 30 31 32
23 23 24 24 23 22 22 21 20 21 22 23 24 25 25 25 25 25 26 26 26 27 27 27 28 29 30 31 31 32 31 30 31 32 32 32 33 32 32 31 32 32 31 29 29 30 31 31 31 30 31 31
24 24 25 24 24 24 23 21 21 22 24 25 26 25 25 26 26 27 27 28 28 28 29 29 30 31 32 33 33 31 31 31 33 34 33 34 33 32 31 30 31 29 28 29 31 33 34 33 31 30 30 30
25 25 24 24 24 23 21 20 21 23 25 27 27 26 27 28 28 30 30 30 30 30 31 31 32 33 33 34 32 31 33 34 36 38 38 37 34 35 34 32 30 28 28 30 31 32 32 30 29 30 30 30
27 26 24 24 23 22 21 22 24 25 27 28 29 29 29 30 32 32 32 32 32 32 33 33 35 35 33 32 32 33 36 36 38 41 40 35 32 34 35 31 28 29 30 31 32 32 30 29 29 31 30 28
27 25 24 24 24 23 22 23 26 28 29 30 32 32 33 34 35 35 35 34 33 33 34 35 36 36 33 32 34 36 35 31 33 40 41 33 29 31 33 29 27 29 29 30 32 31 30 31 31 32 29 27
25 24 25 25 25 24 23 24 28 31 31 32 34 35 35 35 35 36 36 34 34 35 34 34 33 33 32 30 32 33 30 27 30 38 42 35 28 29 31 28 26 29 29 29 31 30 31 31 31 31 27 28
24 24 24 25 25 25 24 26 30 32 32 33 36 37 36 35 35 36 36 35 36 33 31 30 28 28 29 28 27 28 28 26 27 34 40 35 27 27 28 26 26 29 27 28 31 29 30 30 30 29 23 30
23 23 24 25 26 26 26 28 30 32 34 35 37 38 36 35 35 34 34 35 33 30 27 26 26 27 27 27 25 26 26 25 24 31 40 37 28 27 26 24 26 28 26 28 30 26 28 29 28 25 22 33
22 22 24 25 26 28 29 29 29 33 36 37 38 38 36 36 36 32 31 31 30 28 26 25 26 27 28 27 27 28 27 26 26 29 39 39 31 28 26 23 25 28 26 28 27 23 25 26 24 22 22 34
21 22 24 25 28 30 30 30 30 32 36 37 37 37 36 35 33 29 26 28 28 26 26 27 28 30 30 29 31 34 30 28 26 27 36 38 32 29 26 26 26 28 30 29 26 21 22 23 20 18 21 33
24 24 24 25 27 28 29 30 30 30 31 33 32 33 33 31 28 25 25 26 27 29 29 32 35 35 34 32 34 37 34 29 25 27 36 37 35 30 26 28 28 30 33 29 24 19 20 20 16 15 19 33
26 25 24 24 24 24 27 29 29 26 25 27 28 28 28 29 28 26 26 26 28 34 33 31 36 39 36 35 36 37 36 33 27 30 38 38 36 30 25 27 28 34 34 26 23 19 15 13 12 14 17 31
25 24 24 25 24 23 25 26 25 24 22 23 25 25 26 30 31 28 28 26 26 32 32 27 31 39 38 36 37 35 37 36 29 32 39 37 33 27 24 24 25 34 35 28 25 17 10 8 10 10 12 28
24 23 22 23 24 26 26 24 22 22 22 21 23 24 26 29 30 28 27 26 23 26 31 27 27 36 38 36 37 36 37 35 28 32 38 37 33 27 24 22 22 30 33 30 24 13 7 7 8 6 10 24
23 23 23 22 22 23 24 22 20 21 21 21 21 22 24 25 28 29 26 26 24 23 30 31 27 32 36 35 36 37 36 32 28 33 37 36 34 29 24 20 20 28 31 28 23 16 9 6 5 5 13 19
24 25 24 24 23 20 19 20 21 21 20 20 20 20 21 23 27 31 30 28 27 23 26 31 30 32 34 34 35 35 35 33 32 35 36 35 34 30 25 20 19 27 31 27 23 22 16 8 6 9 15 12
25 26 25 25 24 21 19 19 19 19 19 19 19 19 20 22 24 30 33 30 28 25 22 25 29 33 34 34 34 34 35 35 33 33 33 34 33 30 27 23 20 24 28 26 24 24 21 16 13 15 15 9
Wind_Direction
334 341 353 359 359 358 355 354 357 0 2 3 2 1 358 353 347 339 331 326 322 319 317 315 315 315 316 316 315 312 309 307 306 305 305 304 303 302 300 298 297 297 297 297 297 295 294 294 294 294 294 293
348 354 358 359 358 358 358 1 5 8 9 8 7 6 5 4 2 359 355 350 346 342 338 335 334 332 331 329 327 322 317 312 310 310 308 308 307 306 304 302 301 299 298 298 297 295 295 295 294 294 293 291
354 357 358 359 358 0 4 7 9 10 9 8 7 6 6 5 5 5 4 3 1 358 354 349 344 341 338 335 332 328 322 317 314 313 311 311 310 309 307 306 304 302 301 299 298 298 298 298 297 295 293 291
352 355 354 357 359 2 5 5 7 7 7 6 6 4 4 3 3 3 4 4 4 3 0 356 351 345 342 337 334 330 325 321 317 315 314 313 312 312 310 308 306 304 303 302 301 301 302 302 300 297 295 295
350 352 353 355 358 2 3 3 3 3 4 4 4 3 2 1 1 1 2 2 2 2 1 358 354 349 346 343 339 334 328 324 320 317 315 314 313 312 311 310 307 306 306 306 305 304 304 304 302 300 299 298
350 352 354 356 357 359 1 0 359 360 3 4 4 3 1 1 0 360 360 0 0 359 358 356 353 349 348 346 343 340 334 331 328 325 323 321 319 318 317 315 312 311 311 310 308 306 305 304 302 302 301 300
351 354 357 358 356 356 358 359 360 2 4 6 6 3 1 1 360 359 359 358 356 355 353 352 350 347 344 340 339 338 334 331 331 330 329 328 327 325 324 323 321 319 317 315 313 310 307 305 304 303 302 301
356 357 359 359 357 355 357 0 2 6 9 10 8 3 2 2 1 360 358 355 354 353 351 349 347 344 342 339 338 337 334 332 332 331 330 329 329 329 329 329 328 327 325 322 318 315 312 309 307 305 303 302
4 0 360 359 359 3 9 13 18 25 26 24 17 11 11 12 12 9 5 0 358 356 352 349 345 344 344 342 342 341 340 339 337 335 334 334 333 333 333 333 332 332 331 329 326 321 317 313 311 309 308 308
24 21 20 19 21 30 39 44 47 50 47 42 35 31 29 27 25 21 14 6 1 357 353 350 349 349 350 351 350 349 349 346 344 343 342 341 340 339 338 337 336 336 336 337 335 330 325 321 319 318 317 316
47 48 48 48 51 59 64 65 64 60 55 50 43 39 36 31 27 21 14 7 3 1 358 357 357 357 358 358 356 356 357 353 351 351 349 348 346 345 343 341 340 340 341 341 342 340 337 334 330 329 327 326
53 55 58 61 65 69 71 69 65 60 55 50 43 39 33 27 23 17 13 9 7 6 5 5 4 2 360 359 359 359 359 356 356 354 352 351 349 347 346 345 345 345 346 346 346 346 345 343 340 339 337 336
59 61 66 68 71 72 71 68 64 59 53 47 42 36 29 24 21 17 14 12 11 8 7 7 4 2 0 0 2 2 1 1 1 357 355 354 352 351 349 349 349 348 348 348 348 348 347 347 346 345 343 342
69 73 76 76 77 75 71 68 63 58 51 45 40 34 29 26 23 20 17 15 13 10 9 7 5 4 4 5 7 8 6 5 2 358 358 356 354 353 352 351 350 348 348 348 348 348 347 346 344 343 342 340
75 78 79 78 77 74 70 66 61 56 49 43 38 32 28 24 23 22 20 18 15 14 13 11 10 10 10 11 12 12 8 5 2 1 1 360 358 358 355 354 353 353 353 352 350 348 346 344 342 341 339 338
80 79 79 78 75 71 67 62 58 52 45 41 37 31 27 25 24 24 24 24 22 22 21 19 18 17 17 16 15 12 8 7 7 6 6 5 4 3 0 359 0 0 358 354 351 349 348 348 346 342 341 339
84 82 79 77 72 68 63 58 53 48 43 40 36 32 30 30 30 30 30 30 29 28 27 26 24 23 21 17 14 13 13 12 11 11 10 8 6 5 4 4 3 2 359 356 353 351 351 351 347 343 343 342
84 81 80 76 71 65 58 55 50 45 41 38 36 34 34 34 35 35 34 34 33 31 31 30 29 28 23 17 16 19 19 16 14 13 11 7 4 3 4 3 2 0 357 356 353 353 352 348 344 345 347 347
79 78 77 73 69 63 55 51 48 44 39 38 38 36 37 37 37 37 36 35 34 32 32 31 30 28 24 19 20 22 21 18 15 14 12 9 2 1 2 1 1 359 355 354 353 353 349 346 345 348 352 355
75 73 71 69 65 61 55 49 46 44 41 40 39 38 39 39 38 37 36 35 35 34 33 31 28 24 22 19 18 20 18 17 17 12 13 14 5 360 1 0 0 357 355 354 351 349 346 346 348 351 356 1
72 70 67 65 62 58 54 49 46 44 43 42 40 40 40 40 39 36 35 36 36 36 33 29 25 19 18 17 16 17 16 18 19 12 12 14 8 1 1 1 360 356 357 354 349 347 347 348 349 354 1 2
71 69 65 62 60 58 56 52 46 43 44 44 42 42 42 41 41 36 34 35 35 34 30 28 25 20 18 18 17 17 17 18 17 13 12 14 11 2 360 1 359 356 355 351 347 347 348 350 350 357 4 1
73 67 63 61 58 57 56 53 48 43 43 45 44 43 43 43 43 38 34 34 34 32 30 29 25 23 22 21 21 20 19 17 15 12 10 13 13 5 4 4 360 356 353 349 348 347 346 349 354 359 359 359
72 64 61 59 57 55 55 54 52 45 42 44 44 43 43 44 42 37 34 33 34 33 32 32 29 28 27 25 27 29 26 18 15 13 9 13 15 8 6 7 5 0 354 349 347 347 347 349 356 358 354 357
66 63 60 59 59 58 57 57 56 51 45 45 44 42 42 43 39 35 36 35 35 35 36 36 35 35 32 29 31 33 33 25 19 14 12 16 17 13 6 3 6 4 358 354 349 347 344 346 357 355 350 356
68 66 66 68 69 66 62 59 58 56 51 48 46 43 41 42 41 38 37 36 36 36 37 36 36 37 36 34 32 32 34 32 24 16 17 20 17 14 8 4 6 7 4 357 348 345 337 338 352 349 348 353
73 72 71 72 73 71 67 62 60 59 57 52 49 45 41 43 44 42 38 37 37 36 35 35 34 36 39 37 35 33 34 33 26 18 22 25 18 9 6 8 9 10 10 2 349 344 338 340 342 341 351 349
78 78 75 73 71 69 68 65 60 59 56 52 49 46 42 42 43 43 39 36 39 38 35 35 35 35 38 39 38 37 36 32 24 20 24 26 23 14 7 7 7 9 13 13 8 356 331 335 344 347 342 337
75 75 72 72 69 65 64 60 55 52 49 47 46 45 42 41 41 42 41 37 39 39 33 34 37 35 36 38 38 37 37 32 25 25 26 27 27 23 14 6 2 6 12 21 24 16 359 337 349 346 327 325
72 70 67 67 65 60 58 55 50 47 46 44 44 44 42 41 40 41 44 45 46 45 32 30 35 36 35 37 37 36 36 34 30 27 27 28 28 26 22 14 6 4 7 18 23 20 20 6 344 326 322 326
71 71 68 67 66 62 61 60 54 50 49 47 45 44 42 40 38 37 41 46 51 54 42 28 29 34 35 36 37 36 35 34 31 28 27 28 28 27 27 24 15 5 3 11 13 11 13 8 358 344 336 347